www.pogodaiklimat.ru

Погода и климат >> Архив погоды >> Бразилия >> Мату-Гросу >> Куяба


ПОГОДА в Куябе

  • Прогноз погоды в Куябе
  • Монитор погоды в Куябе

АРХИВ ПОГОДЫ в Куябе

Время (UTC), дата Ветер
(напр.,м/с)
 
Видим.   Явления Облачность Т
(С)
Тd
(С)
f
(%)
Тe
(С)
Тes
(С)
Комфортность P
(гПа)
Po
(гПа)
Тmin
(С)
Tmax
(С)
R
(мм)
R24
(мм)
S
(см)
12 15.05 Ю 3 20 км 5/1 600 м
[Sc Ac trans]
+20.3 +16.4 78 +24 +26 комфорт 1019.6 997.6 +19.0
15 15.05 ЮВ 4 20 км 6/4 600 м
[Sc Ac trans]
+24.1 +16.7 63 +28 +33 душно 1019.0 997.1
18 15.05 Ю 5 20 км 5/5 600 м
[Cu hum]
+25.9 +16.6 56 +29 +32 душно 1016.3 994.5
21 15.05 ЮВ 3 20 км 5/5 600 м
[Sc]
+25.5 +17.6 62 +30 +30 душно 1016.1 994.3
00 16.05 Ю 4 20 км ясно +22.4 +18.2 77 +28 +28 душно 1017.7 995.7 +26.6
03 16.05 Ю 5 20 км ясно +21.0 +17.5 80 +25 +25 комфорт 1018.5 996.6
06 16.05 Ю 2 20 км ясно +19.0 +17.0 88 +21 +21 комфорт 1017.4 995.5
12 16.05 Ю 3 20 км ясно +20.7 +17.2 80 +25 +28 комфорт 1018.8 996.9 +18.6
15 16.05 Ю 2 20 км 8/8 600 м
[Cu med, cong]
+25.0 +16.6 60 +29 +31 душно 1018.5 996.6
18 16.05 СЗ 2 20 км ясно +28.0 +16.2 49 +31 +42 душно 1015.5 993.8
21 16.05 ЮВ 4 20 км ясно +26.6 +17.5 57 +31 +31 душно 1015.0 993.2
00 17.05 Ю 3 20 км ясно +23.3 +17.8 71 +29 +29 душно 1016.5 994.6 +28.0
03 17.05 Ю 2 20 км ясно +21.8 +18.1 80 +27 +27 душно 1016.9 995.1
06 17.05 штиль 0 20 км ясно +19.7 +18.0 90 +22 +22 комфорт 1015.2 993.5
09 17.05 ЮЗ 1 20 км ясно +20.6 +18.2 86 +25 +25 комфорт 1014.2 992.5
12 17.05 З 2 20 км ясно +23.4 +19.2 77 +30 +34 очень
душно
1016.1 994.3 +19.2
15 17.05 Ю 3 20 км ясно +28.7 +19.6 58 +35 +47 очень
душно
1015.2 993.6
18 17.05 Ю 2 20 км ясно +31.3 +20.2 52 +38 +48 очень
душно
1012.1 990.6
21 17.05 ЮВ 2 20 км ясно +29.9 +21.5 61 +38 +38 очень
душно
1011.5 989.9
00 18.05 ЮВ 1 20 км ясно +25.9 +22.1 80 +34 +34 очень
душно
1012.9 991.3 +31.3
03 18.05 Ю 1 20 км ясно +23.6 +21.7 89 +30 +30 очень
душно
1013.0 991.5
06 18.05 ЮЗ 1 20 км ясно +23.7 +22.0 90 +31 +31 очень
душно
1012.3 990.9
09 18.05 С 2 20 км ясно +22.2 +20.9 92 +29 +29 очень
душно
1012.6 991.1
12 18.05 СЗ 3 20 км ясно +26.0 +22.6 82 +34 +38 очень
душно
1014.4 992.8 +22.1
15 18.05 СЗ 2 20 км ясно +32.1 +21.8 55 +41 +55 опасность
перегрева
1013.8 992.4
18 18.05 СВ 2 20 км 4/4 600 м
[Cu med, cong]
+32.9 +20.7 49 +40 +46 очень
душно
1011.3 990.0
21 18.05 С 2 20 км ясно +32.5 +20.3 49 +39 +39 очень
душно
1011.1 989.7
00 19.05 Ю 2 20 км ясно +27.1 +22.4 76 +36 +36 очень
душно
1012.8 991.4 +34.6
03 19.05 ЮВ 1 20 км ясно +25.8 +22.9 84 +34 +34 очень
душно
1013.6 992.3
06 19.05 ЮВ 1 20 км ясно +24.1 +22.7 92 +32 +32 очень
душно
1012.9 991.5
09 19.05 СЗ 3 20 км ясно +22.6 +20.9 90 +30 +30 очень
душно
1013.5 992.1
12 19.05 СЗ 1 20 км ясно +26.5 +22.2 77 +34 +39 очень
душно
1015.3 993.8 +22.2
15 19.05 штиль 0 20 км ясно +33.4 +21.2 49 +41 +60 опасность
перегрева
1015.0 993.7
18 19.05 ЮВ 3 20 км 4/4 600 м
[Cu med, cong]
+34.4 +17.9 38 +38 +43 очень
душно
1012.7 991.4
21 19.05 ЮВ 2 20 км ясно +31.8 +19.7 49 +38 +38 очень
душно
1011.8 990.4
00 20.05 Ю 2 20 км ясно +27.3 +21.2 69 +34 +34 очень
душно
1012.7 991.3 +34.4
03 20.05 штиль 0 20 км ясно +24.6 +21.8 84 +31 +31 очень
душно
1012.9 991.6
06 20.05 СЗ 2 20 км ясно +23.6 +21.7 89 +30 +30 очень
душно
1012.6 991.3
09 20.05 СЗ 3 20 км ясно +22.3 +20.6 90 +29 +29 очень
душно
1013.0 991.5
12 20.05 СЗ 2 20 км ясно +26.3 +21.8 76 +34 +38 очень
душно
1015.0 993.5 +22.3
15 20.05 СВ 1 20 км ясно +33.2 +18.1 41 +38 +54 опасность
солнечного
удара
1014.4 993.1
18 20.05 В 2 20 км ясно +34.9 +15.1 31 +37 +46 очень
душно
1011.7 990.4
21 20.05 С 1 20 км ясно +32.3 +17.3 41 +36 +36 очень
душно
1010.9 989.5
00 21.05 СЗ 1 20 км ясно +27.8 +18.1 56 +33 +33 очень
душно
1011.8 990.4 +35.1
03 21.05 ЮВ 1 20 км ясно +23.3 +21.2 88 +31 +31 очень
душно
1012.6 991.2
06 21.05 штиль 0 20 км ясно +22.1 +20.1 88 +28 +28 душно 1012.1 990.7
09 21.05 СЗ 2 20 км ясно +20.8 +18.2 85 +25 +25 комфорт 1012.0 990.6
12 21.05 СЗ 3 20 км ясно +24.4 +20.0 76 +30 +33 очень
душно
1014.6 993.0 +20.8
15 21.05 С 2 20 км ясно +33.9 +16.6 36 +37 +50 очень
душно
1014.5 993.2
21 21.05 З 4 20 км ясно +34.4 +14.2 30 +36 +36 душно 1011.7 990.3
00 22.05 Ю 2 20 км ясно +27.7 +19.7 62 +34 +34 очень
душно
1012.8 991.3 +36.0
03 22.05 СВ 1 20 км ясно +23.8 +20.6 82 +30 +30 очень
душно
1013.8 992.5
06 22.05 СЗ 1 20 км ясно +22.3 +19.9 86 +28 +28 душно 1012.5 991.2
09 22.05 СЗ 3 20 км ясно +21.8 +19.8 88 +27 +27 душно 1012.4 991.0

 

Местоположение метеостанции Куяба (Мату-Гросу, Бразилия): широта -15.65 долгота -56.10 высота над уровнем моря 187 м.

В архиве по умолчанию представлена погода в Куябе за последнюю неделю. Архивные данные за месяц целиком и за предыдущие месяцы, начиная с января 2011 года, Вы можете получить, выбрав интересующий диапазон дат из раскрывающегося списка и нажав кнопку "Ввод!".


*Определитесь, кто Вы:
робот инопланетянин человек

Внимание! Время в таблицах - всемирное. Для получения местного времени необходимо прибавить поправку, которая равна -3 ч.

Смотрите также архив погоды в соседних городах и на ближайших метеорологических станциях:

Погода в Куябе (Мату-Гросу, Бразилия) (3 км)
Погода в Кампо-Верде (Мату-Гросу, Бразилия) (105 км)
Погода в Порто-Эстреле (Мату-Гросу, Бразилия) (126 км)
Погода в Диамантину (Мату-Гросу, Бразилия) (144 км)
Погода в Касересе (Мату-Гросу, Бразилия) (175 км)
Погода в Касерисе (Мату-Гросу, Бразилия) (176 км)
Погода в Тангара-да-Серре (Мату-Гросу, Бразилия) (181 км)
Погода в Пошореу (Мату-Гросу, Бразилия) (185 км)
Погода в Рондонополисе (Мату-Гросу, Бразилия) (186 км)
Погода в Салту-ду-Сеу (Мату-Гросу, Бразилия) (225 км)

Пояснения к столбцам:

Ветер - указаны скорость ветра в м/с - средняя за 10 мин, порывы в срок и между сроками (в фигурных скобках) и направление, откуда дует ветер: С - северный, СВ - северо-восточный, В - восточный, ЮВ - юго-восточный, Ю - южный, ЮЗ - юго-западный, З - западный, СЗ - северо-западный.
Видимость - горизонтальная дальность видимости в метрах или километрах. При видимости от 1 до 10 км при отсутствии осадков обычно наблюдается дымка, при ухудшении видимости до 1 км и менее - туман. В сухую погоду видимость может ухудшаться дымом, пылью или мглою.
Явления - указаны атмосферные явления, наблюдавшиеся в срок или в последний час перед сроком; фигурными скобками обозначены явления, наблюдавшиеся между сроками (за 1-3 часа до срока); квадратными скобками обозначены град или гололедные отложения с указанием их диаметра в мм.
Облачность - указаны через наклонную черту общая и нижняя облачность в баллах и высота нижней границы облаков в метрах; квадратными скобками обозначены формы облаков: Ci - перистые, Cs - перисто-слоистые, Cc - перисто-кучевые, Ac - высококучевые, As - высокослоистые, Sc - слоисто-кучевые, Ns - слоисто-дождевые, Cu - кучевые, Cb - кучево-дождевые. Подробнее классификацию облаков см. в Атласе облаков (PDF).
T - Температура воздуха - температура, измеренная на высоте 2 м над землей.
Td - Температура точки росы - температура, при понижении до которой содержащийся в воздухе водяной пар достигнет насыщения.
f - Относительная влажность воздуха - влажноcть воздуха, измеренная на высоте 2 м над землей.
Te - Эффективная температура - температура, которую ощущает одетый по сезону человек в тени. Характеристика душности погоды. При расчете учитывается влияние влажности воздуха и скорости ветра на теплоощущения человека.
Tes - Эффективная температура на солнце - температура, которую ощущает человек, с поправкой на солнечный нагрев. Характеристика знойности погоды. Зависит от высоты солнца над горизонтом, облачности и скорости ветра. Ночью, в пасмурную погоду, а также при ветре 12 м/с и более поправка равна нулю.
P - Атмосферное давление - приведенное к уровню моря атмосферное давление.
Po - Атмосферное давление - измеренное на уровне метеостанции атмосферное давление.
Tmin - Минимальная температура - минимум температуры воздуха на высоте 2 м над землей.
Tmax - Максимальная температура - максимум температуры воздуха на высоте 2 м над землей.
R - Количество осадков - Количество выпавших осадков за период времени, мм. При наведении курсора мыши на число - период времени, за который выпало указанное количество осадков.
R24 - Количество осадков - Количество выпавших осадков за 24 часа, мм.
S - Снежный покров - Высота снежного покрова, см. При наведении курсора мыши на число - состояние снежного покрова и степень покрытия местности в баллах.